Regional Weather Roundup
Issued by NWS

Home | Current Version | Previous Version | Graphics & Text | Print | Product List | Glossary On
Versions: 1 2 3 4 5 6 7 8 9 10 11 12 13 14 15 16 17 18 19 20 21 22 23 24 25 26 27 28 29 30 31 32 33 34 35 36 37 38 39 40 41 42 43 44 45 46 47 48 49 50
000
ASUS43 KBIS 310602
RWRND

NORTH DAKOTA REGIONAL WEATHER ROUNDUP
NATIONAL WEATHER SERVICE BISMARCK ND
100 AM CDT MON AUG 31 2015

NOTE: "FAIR" INDICATES FEW OR NO CLOUDS BELOW 12,000 FEET WITH NO
SIGNIFICANT WEATHER AND/OR OBSTRUCTIONS TO VISIBILITY.


NDZ001>003-009>011-017-310700-
NORTHWEST NORTH DAKOTA

CITY           SKY/WX    TMP DP  RH WIND       PRES   REMARKS
WILLISTON      LGT RAIN  68  55  63 NE12      29.67F
6HR MIN TEMP:  65; 6HR MAX TEMP:  83; 6HR PCP: TRACE;

MINOT          FAIR      68  51  54 W9        29.68R
MINOT AFB      FAIR      68  53  59 NW10      29.68R
$$

NDZ018>021-031>035-040>046-310700-
SOUTHWEST NORTH DAKOTA

CITY           SKY/WX    TMP DP  RH WIND       PRES   REMARKS
BISMARCK       PTCLDY    66  60  81 E8        29.61F
6HR MIN TEMP:  65; 6HR MAX TEMP:  97;

DICKINSON      CLOUDY    67  51  56 NW12      29.76R
GARRISON         N/A     65  54  67 N10       29.67R
6HR MIN TEMP:  64; 6HR MAX TEMP:  83;

HETTINGER ARPT MOCLDY    68  54  60 N5        29.70F HAZE
$$

NDZ004>008-012>016-024-026-027-054-310700-
NORTHEAST NORTH DAKOTA

CITY           SKY/WX    TMP DP  RH WIND       PRES   REMARKS
GRAND FORKS    FAIR      72  67  84 S14       29.65F
GRND FRKS AFB  FAIR      72  68  86 S9        29.66S
DEVILS LAKE    FAIR      72  64  78 S5        29.64S
$$

NDZ022-023-025-028>030-036>039-047>053-310700-
SOUTHEAST NORTH DAKOTA

CITY           SKY/WX    TMP DP  RH WIND       PRES   REMARKS
FARGO          FAIR      71  62  73 S18G28    29.70F
6HR MIN TEMP:  71; 6HR MAX TEMP:  84;

JAMESTOWN      FAIR      70  67  90 S14       29.67S
$$



USA.gov is the U.S. government's official web portal to all federal, state and local government web resources and services.